Regional Weather Roundup
Issued by NWS

Home | Current Version | Previous Version | Graphics & Text | Print | Product List | Glossary On
Versions: 1 2 3 4 5 6 7 8 9 10 11 12 13 14 15 16 17 18 19 20 21 22 23 24 25 26 27 28 29 30 31 32 33 34 35 36 37 38 39 40 41 42 43 44 45 46 47 48 49 50
000
ASUS45 KTFX 312004
RWRMT
MONTANA HOURLY WEATHER ROUNDUP
NATIONAL WEATHER SERVICE GREAT FALLS MT
204 PM MDT THU JUL 31 2014

NOTE: "FAIR" INDICATES FEW OR NO CLOUDS BELOW 12000 FEET WITH NO
SIGNIFICANT WEATHER AND/OR OBSTRUCTIONS TO VISIBILITY.

* THESE STATIONS ARE NOT UNDER NWS QUALITY CONTROL. THEY DO NOT
   REPORT WEATHER SUCH AS PRECIPITATION OR FOG.

MTZ001>007-043-312100-
WEST OF THE DIVIDE
CITY           SKY/WX    TMP DP  RH WIND       PRES   REMARKS
* ESSEX        N/A       87  43  21 N8         N/A
* LINCOLN      N/A       86  44  23 SW4G9      N/A
* LOOKOUT PASS N/A       83  35  18 NE5        N/A
* POLSON       N/A       90  50  25 SE3        N/A
* RONAN APT    SUNNY     86  52  31 N/A        N/A
* SEELEY LAKE  N/A       83  40  22 NW7G14     N/A
* THOMP F APT  SUNNY     77  42  29 S4G12      N/A
$$

MTZ008-052>055-312100-
SOUTHWEST MONTANA
CITY           SKY/WX    TMP DP  RH WIND       PRES   REMARKS
* THREE FORKS  SUNNY     86  52  31 E6         N/A
* BOULDER HILL N/A       80  42  26 N6G14      N/A
* MONIDA PASS  N/A       75  38  26 N9G14      N/A
* RAYNOLDS PAS N/A       76  67  74 SW4        N/A
* WHITEHALL    N/A       87  47  25 SE4G9      N/A
* WISE RIVER   N/A       81  39  22 NE11G16    N/A
$$

MTZ009>010-012-014-046-048-049-054-312100-
EAST SLOPES AND CENTRAL MONTANA
CITY           SKY/WX    TMP DP  RH WIND       PRES   REMARKS
* CONRAD       PTCLDY    91  48  23 NW5        N/A
* DEARBORN     N/A       91  39  16 NE2G9      N/A
* EAST GLACIER N/A       67  47  49 E22G31     N/A
* MONARCH      N/A       81  40  23 NW14G21    N/A
* PENDROY      N/A       86  48  27 NE10       N/A
* ROGERS PASS  N/A       68  55  63 W1G6       N/A
* SAINT MARY   N/A       81  55  41 N6G14      N/A   HI  81
* SWEET GRASS  N/A       84  48  29 NE12G17    N/A
$$

MTZ011-013-016-021-035-040-045-047-050-051-312100-
NORTH CENTRAL MONTANA
CITY           SKY/WX    TMP DP  RH WIND       PRES   REMARKS
* CHESTER      N/A       90  41  18 NW8G15     N/A
* DENTON       N/A       92  50  24 N5G10      N/A
* GEYSER       N/A       88  46  23 S6         N/A
* JUDITH GAP   N/A       84  46  26 N4G12      N/A
* LOMA         N/A       94  39  15 NW8G14     N/A
$$

MTZ017>020-022>027-061-062-312100-
NORTHEAST MONTANA
CITY           SKY/WX    TMP DP  RH WIND       PRES   REMARKS
JORDAN         SUNNY     97  34  11 W14       30.01F
* BEAVER HILL  N/A       90  46  22 SW17       N/A
* CIRCLE       N/A       93  50  23 S13G19     N/A
* LINDSAY DVD  N/A       90  42  19 SW13G19    N/A
* NAVAJO       N/A       87  54  32 SW4G10     N/A
$$

MTZ028>042-056>058-312100-
SOUTHCENTRAL AND SOUTHEAST MONTANA
CITY           SKY/WX    TMP DP  RH WIND       PRES   REMARKS
BAKER          PTCLDY    86  45  24 W15G21    30.11F
* LAUREL APT   SUNNY     90  41  18 SE6        N/A
* ROUNDUP APT  SUNNY     91  37  15 S5         N/A
* ALZADA       N/A       83  46  27 S1         N/A
* HYSHAM       N/A       86  45  24 W3G11      N/A
* LAME DEER    N/A       85  32  15 SE6G12     N/A
* REED POINT   N/A       92  46  20 W6G11      N/A
* ROSCOE HILL  N/A       83  39  21 SW3        N/A
$$

REGIONAL REPORTS...DAKOTAS
CITY           SKY/WX    TMP DP  RH WIND       PRES   REMARKS
BUFFALO SD     SUNNY     88  46  23 VRB6      30.06F
$$

REGIONAL REPORTS...WYOMING/IDAHO/WASHINGTON
CITY           SKY/WX    TMP DP  RH WIND       PRES   REMARKS
YELLOWSTONE LA PTSUNNY   68  39  35 VRB7      30.44F

$$




USA.gov is the U.S. government's official web portal to all federal, state and local government web resources and services.